TimeMST,TemperatureF,Dew PointF,Humidity,Sea Level PressureIn,VisibilityMPH,Wind Direction,Wind SpeedMPH,Gust SpeedMPH,PrecipitationIn,Events,Conditions,WindDirDegrees,DateUTC
12:56 AM,32.0,21.9,66,29.91,10.0,West,5.8,-,N/A,,Clear,260,2013-02-05 07:56:00
1:56 AM,33.1,23.0,66,29.90,10.0,South,4.6,-,N/A,,Clear,170,2013-02-05 08:56:00
2:56 AM,33.1,24.1,70,29.89,10.0,West,10.4,-,N/A,,Clear,270,2013-02-05 09:56:00
3:56 AM,30.9,23.0,72,29.88,10.0,West,9.2,-,N/A,,Clear,270,2013-02-05 10:56:00
4:56 AM,35.1,24.1,64,29.88,10.0,WSW,10.4,-,N/A,,Clear,250,2013-02-05 11:56:00
5:56 AM,35.1,23.0,61,29.87,10.0,WSW,9.2,-,N/A,,Clear,250,2013-02-05 12:56:00
6:56 AM,35.1,23.0,61,29.88,10.0,WSW,8.1,-,N/A,,Scattered Clouds,240,2013-02-05 13:56:00
7:56 AM,37.0,23.0,57,29.85,10.0,SW,9.2,-,N/A,,Overcast,230,2013-02-05 14:56:00
8:56 AM,37.9,23.0,55,29.82,10.0,SW,12.7,-,N/A,,Clear,220,2013-02-05 15:56:00
9:56 AM,43.0,24.1,47,29.78,10.0,SSW,6.9,-,N/A,,Clear,210,2013-02-05 16:56:00
10:56 AM,44.1,24.1,45,29.77,10.0,Variable,5.8,-,N/A,,Overcast,0,2013-02-05 17:56:00
11:56 AM,46.0,25.0,44,29.74,10.0,SW,20.7,-,N/A,,Overcast,230,2013-02-05 18:56:00
12:56 PM,50.0,25.0,38,29.72,10.0,WSW,21.9,-,N/A,,Unknown,240,2013-02-05 19:56:00
1:56 PM,52.0,24.1,34,29.66,10.0,SW,33.4,40.3,N/A,,Clear,230,2013-02-05 20:56:00
2:56 PM,53.1,23.0,31,29.68,10.0,WSW,24.2,33.4,N/A,,Overcast,250,2013-02-05 21:56:00
3:56 PM,48.9,24.1,38,29.67,10.0,WSW,29.9,34.5,N/A,,Clear,250,2013-02-05 22:56:00
4:56 PM,46.0,23.0,40,29.64,10.0,WSW,24.2,32.2,N/A,,Clear,240,2013-02-05 23:56:00
5:56 PM,39.2,24.8,56,29.59,10.0,WSW,12.7,27.6,N/A,,Clear,240,2013-02-06 00:56:00
6:56 PM,39.9,25.0,55,29.60,10.0,WSW,35.7,44.9,N/A,,Clear,250,2013-02-06 01:56:00
7:56 PM,39.0,28.0,65,29.61,10.0,West,39.1,49.5,N/A,,Clear,260,2013-02-06 02:56:00
8:56 PM,37.0,27.0,67,29.65,10.0,West,25.3,35.7,N/A,,Clear,270,2013-02-06 03:56:00
9:56 PM,35.1,26.1,70,29.68,10.0,WNW,20.7,29.9,N/A,,Clear,290,2013-02-06 04:56:00
10:56 PM,35.1,23.0,61,29.68,10.0,WNW,20.7,28.8,N/A,,Clear,300,2013-02-06 05:56:00
11:56 PM,30.0,21.9,72,29.73,10.0,West,13.8,-,N/A,,Partly Cloudy,280,2013-02-06 06:56:00